Regional Weather Roundup
Issued by NWS

Home | Current Version | Previous Version | Text Only | Print | Product List | Glossary On
Versions: 1 2 3 4 5 6 7 8 9 10 11 12 13 14 15 16 17 18 19 20 21 22 23 24 25 26 27 28 29 30 31 32 33 34 35 36 37 38 39 40 41 42 43 44 45 46 47 48 49 50
000
ASUS42 KFFC 272303
RWRGA
WEATHER ROUNDUP FOR GEORGIA
NATIONAL WEATHER SERVICE PEACHTREE CITY GA
600 PM EST FRI FEB 27 2015

NOTE: "FAIR" INDICATES FEW OR NO CLOUDS BELOW 12,000 FEET WITH NO
SIGNIFICANT WEATHER AND/OR OBSTRUCTIONS TO VISIBILITY.

* = USE WITH CAUTION. THE STATIONS MARKED WITH AN ASTERISK MAY NOT
REPORT WEATHER SUCH AS PRECIPITATION, FOG, OR THUNDER AND ARE NOT
QUALITY CONTROLLED BY NWS.

THE REMARK "TC" DENOTES TEMPERATURE READING IN DEGREES CELSIUS.

GAZ001>058-280000-
NORTH GEORGIA

CITY           SKY/WX    TMP DP  RH WIND       PRES   REMARKS
ATLANTA        PTCLDY    45  18  34 N8        30.36R
ATHENS         CLEAR     50  22  33 NW6       30.34R
CHAMBLEE       CLEAR     43  22  43 NW8       30.36R
PEACHTREE CITY CLEAR     47  18  31 N7        30.37R
ROME           CLEAR     40  16  37 N12       30.42R WCI  33
WEST ATLANTA   CLEAR     43  19  38 N9        30.37R
GAINESVILLE    CLEAR     46  20  35 W8        30.34S
CARTERSVILLE   CLEAR     39  18  42 NW7       30.41S WCI  34


CITY           SKY/WX    TMP DP  RH WIND       PRES   REMARKS
DALTON*        CLEAR     36  23  60 N10G16    30.43S WCI  28
LAWRENCEVILLE* CLEAR     46  21  36 W6        30.34R
MARIETTA       PTCLDY    42  21  44 NW10      30.36S
KENNESAW*      CLEAR     39  19  45 N9        30.40S WCI  33
$$

GAZ059>098-102>109-280000-
CENTRAL GEORGIA

CITY           SKY/WX    TMP DP  RH WIND       PRES   REMARKS
AUGUSTA-BUSH   CLEAR     55  32  41 CALM      30.34R
AUGUSTA-DANIEL CLEAR     56  32  40 N5        30.34R
COLUMBUS       CLEAR     54  23  30 N8        30.33R
MACON          CLEAR     55  30  38 NE5       30.32R
ROBINS AFB     CLEAR     57  29  35 N6        30.31R


CITY           SKY/WX    TMP DP  RH WIND       PRES   REMARKS
LAGRANGE*      CLEAR     51  26  38 N8        30.36R
SYLVANIA*      MOCLDY    52  40  64 E5        30.35R
MILLEDGEVILLE* CLEAR     54  34  47 CALM      30.34R
$$

GAZ099>101-110>166-280000-
SOUTH GEORGIA

CITY           SKY/WX    TMP DP  RH WIND       PRES   REMARKS
SAVANNAH       CLOUDY    48  35  60 E10       30.35R
VALDOSTA       CLOUDY    51  39  63 NE6       30.31R
ALMA           CLOUDY    50  37  61 VRB3      30.32R
ST SIMONS      CLOUDY    47  36  65 NE14G20   30.33S
FT STEWART     CLOUDY    50  37  62 E3        30.32R
ALBANY         PTCLDY    55  34  45 N6        30.33R
HUNTER AFB     CLOUDY    47  36  65 E10       30.33R
MOODY AFB      CLOUDY    51  39  64 NE7       30.30R
BRUNSWICK      CLOUDY    48  34  57 NE8       30.34S


CITY           SKY/WX    TMP DP  RH WIND       PRES   REMARKS
BAINBRIDGE*    CLOUDY    55  41  58 NE7       30.30S
MOULTRIE*      PTCLDY    52  41  66 CALM      30.31S
VIDALIA*       MOCLDY    54  37  54 E6        30.33S
WAYCROSS*      CLOUDY    54  40  60 E3        30.32R
DOUGLAS*       CLOUDY    54  37  54 E5        30.33R
$$


USA.gov is the U.S. government's official web portal to all federal, state and local government web resources and services.